User: anonymous   Login
Location: Bittkow
(50.3000°N, 19.0000°E)
Time: 12:39:09
(UTC+00:00)
Language:

Meteor 1-27 Rocket - Orbit

View from above orbital plane
View from above orbital plane
View from above satellite
View from above satellite

Ground track
Ground track

The orbit data is extracted from the following two-line orbital elements,

1  9904U 77024B   20330.78189616 -.00000146  00000-0 -94213-4 0  9992
2  9904  81.2625 354.6328 0055633  28.2146 332.2018 14.06897858239632
Epoch (UTC): 25 November 2020 18:45:55
Eccentricity: 0.0055633
inclination: 81.2625°
perigee height: 829 km
apogee height: 910 km
right ascension of ascending node: 354.6328°
argument of perigee: 28.2146°
revolutions per day: 14.06897858
mean anomaly at epoch: 332.2018°
orbit number at epoch: 23963

The dashed part of the orbit path shows where the satellite is in the earth's shadow,  

DLR